Regional Weather Roundup
Issued by NWS

Home | Current Version | Previous Version | Text Only | Print | Product List | Glossary Off
Versions: 1 2 3 4 5 6 7 8 9 10 11 12 13 14 15 16 17 18 19 20 21 22 23 24 25 26 27 28 29 30 31 32 33 34 35 36 37 38 39 40 41 42 43 44 45 46 47 48 49 50

000
ASUS44 KMEG 180900
RWRTN
TENNESSEE HOURLY STATE WEATHER ROUNDUP
NATIONAL WEATHER SERVICE MEMPHIS TN
400 AM CDT THU SEP 18 2014

TNZ002-004-019-021-049-052-054-088>092-181000-
WEST TENNESSEE

CITY           SKY/WX    TMP DP  RH WIND       PRES   REMARKS
MEMPHIS INTL   CLOUDY    69  64  84 E6        29.92S
NWS MEMPHIS      N/A     65 N/A N/A MISG        N/A
JACKSON        CLOUDY    64  61  90 CALM      29.94F
DYERSBURG      CLOUDY    63  54  72 CALM      29.96S
UNION CITY     CLOUDY    61  57  88 CALM      29.95S
PARIS          MOCLDY    57  54  88 CALM      29.97S
SAVANNAH       PTCLDY    63  63 100 CALM      29.95S
$$

TNZ008-025-027-028-033-062-065-066-181000-
NORTH MIDDLE TENNESSEE

CITY           SKY/WX    TMP DP  RH WIND       PRES   REMARKS
NASHVILLE      MOCLDY    62  58  86 NE5       29.98S
CLARKSVILLE    CLOUDY    60  57  89 E6        29.97F
COOKEVILLE     CLOUDY    61  59  94 CALM      29.98F
CROSSVILLE     MOCLDY    60  54  80 CALM      30.01F
$$

TNZ061-075-076-078-094-096-097-181000-
SOUTH MIDDLE TENNESSEE

CITY           SKY/WX    TMP DP  RH WIND       PRES   REMARKS
SHELBYVILLE    CLOUDY    61  59  94 CALM      29.98S
$$

TNZ017-018-042-046-047-181000-
NORTHEAST TENNESSEE

CITY           SKY/WX    TMP DP  RH WIND       PRES   REMARKS
TRI CITIES     PTCLDY    54  51  90 CALM      30.00R FOG
ELIZABETHTON   PTSUNNY   54  52  94 CALM      30.00S
$$

TNZ012-013-036-069-073-074-181000-
CENTRAL EAST TENNESSEE

CITY           SKY/WX    TMP DP  RH WIND       PRES   REMARKS
KNOXVILLE      CLOUDY    62  59  90 SE5       29.98S
OAK RIDGE      CLOUDY    60  58  92 CALM      30.00S
GATLINBURG     CLOUDY    57  57 100 CALM      29.99S
$$

TNZ083-085-099-181000-
SOUTHEAST TENNESSEE

CITY           SKY/WX    TMP DP  RH WIND       PRES   REMARKS
CHATTANOOGA    MOCLDY    63  59  87 CALM      29.97S
$$

SKY/WX REPORTED AS FAIR MEANS FEW OR NO CLOUDS BELOW
12 THOUSAND FEET.



USA.gov is the U.S. government's official web portal to all federal, state and local government web resources and services.